Methuen, Massachusetts, United States (01844)
Lat: 42.73N, Lon: 71.19W
Wx Zone: MAZ006
Local Info
Past Weather Observations for Friday, September 23, 2016

NOTE: This archive is for the closest National Weather Service station to Methuen. Information may differ from the station used for current weather conditions.

Click here for Long-term Archive

Time Weather Temperature Dewpoint Humidity Pressure Winds Precip Visibility
23:54
Overcast
Light Rain
57°F / 14°C 54°F / 12°C 88% 30.12 in
(1020 mb)
N 3.5 mph
(N 6 kph)
0.01 in
(0.25 mm)
9SM
23:46
Overcast
Light Rain
57°F / 14°C 54°F / 12°C 88% 30.12 in
(1020 mb)
N 4.6 mph
(N 7 kph)
0.01 in
(0.25 mm)
7SM
22:54
Overcast
Light Rain
57°F / 14°C 55°F / 13°C 94% 30.12 in
(1020 mb)
NE 5.8 mph
(NE 9 kph)
0.01 in
(0.25 mm)
10SM
21:54
Overcast
Light Rain
57°F / 14°C 55°F / 13°C 94% 30.09 in
(1019 mb)
NE 5.8 mph
(NE 9 kph)
0.03 in
(0.76 mm)
10SM
21:52
Overcast
Light Rain
57°F / 14°C 55°F / 13°C 94% 30.09 in
(1019 mb)
NE 4.6 mph
(NE 7 kph)
0.03 in
(0.76 mm)
10SM
21:08
Overcast
Light Rain
57°F / 14°C 55°F / 13°C 94% 30.09 in
(1019 mb)
N 8.1 mph
(N 13 kph)
0.01 in
(0.25 mm)
9SM
20:54
Overcast
Rain
57°F / 14°C 55°F / 13°C 94% 30.09 in
(1019 mb)
NE 8.1 mph
(NE 13 kph)
0.17 in
(4.32 mm)
7SM
19:54
Overcast
Rain
57°F / 14°C 57°F / 14°C 100% 30.09 in
(1019 mb)
NE 4.6 mph
(NE 7 kph)
0.20 in
(5.08 mm)
4SM
19:13
Overcast
Heavy Rain
61°F / 16°C 55°F / 13°C 83% 30.06 in
(1018 mb)
NE 11.5 mph
(NE 19 kph)
0.08 in
(2.03 mm)
4SM
18:54
Overcast
Light Rain
63°F / 17°C 54°F / 12°C 73% 30.06 in
(1018 mb)
NE 13.8 mph
(NE 22 kph)
0.00 in
(0.00 mm)
10SM
18:15
Overcast
64°F / 18°C 54°F / 12°C 68% 30.04 in
(1017 mb)
ENE 11.5 mph
(ENE 19 kph)
- 10SM
17:54
Overcast
68°F / 20°C 57°F / 14°C 69% 30.04 in
(1017 mb)
NE 11.5 mph
(NE 19 kph)
- 10SM
16:54
Overcast
70°F / 21°C 57°F / 14°C 64% 30.01 in
(1016 mb)
N 10.4 mph
(N 17 kph)
- 10SM
15:54
Mostly Cloudy
75°F / 24°C 63°F / 17°C 65% 29.98 in
(1015 mb)
N 12.7 mph
(N 20 kph)
- 10SM
14:54
Mostly Cloudy
75°F / 24°C 61°F / 16°C 61% 29.98 in
(1015 mb)
N 8.1 mph
(N 13 kph)
- 10SM
13:54
Partly Cloudy
75°F / 24°C 57°F / 14°C 54% 29.98 in
(1015 mb)
NW 5.8 mph
(NW 9 kph)
- 10SM
12:54
Overcast
73°F / 23°C 61°F / 16°C 65% 29.98 in
(1015 mb)
NW 4.6 mph
(NW 7 kph)
- 10SM
11:54
Mostly Cloudy
73°F / 23°C 61°F / 16°C 65% 30.01 in
(1016 mb)
Variable 3.5 mph
(Variable 6 kph)
0.00 in
(0.00 mm)
10SM
11:51
Mostly Cloudy
73°F / 23°C 61°F / 16°C 65% 30.01 in
(1016 mb)
Calm 0.00 in
(0.00 mm)
10SM
11:36
Mostly Cloudy
Thunder Storms
73°F / 23°C 61°F / 16°C 65% 30.01 in
(1016 mb)
NNW 3.5 mph
(NNW 6 kph)
0.00 in
(0.00 mm)
10SM
10:54
Partly Cloudy
73°F / 23°C 57°F / 14°C 57% 30.01 in
(1016 mb)
SSE 5.8 mph
(SSE 9 kph)
- 10SM
09:54
Clear
73°F / 23°C 55°F / 13°C 53% 30.01 in
(1016 mb)
S 5.8 mph
(S 9 kph)
- 10SM
08:54
Partly Cloudy
72°F / 22°C 54°F / 12°C 53% 30.04 in
(1017 mb)
Calm - 10SM
07:54
Partly Cloudy
70°F / 21°C 54°F / 12°C 57% 30.04 in
(1017 mb)
Calm - 10SM
06:54
Clear
64°F / 18°C 52°F / 11°C 64% 30.04 in
(1017 mb)
SW 6.9 mph
(SW 11 kph)
- 10SM
05:54
Clear
64°F / 18°C 50°F / 10°C 60% 30.04 in
(1017 mb)
S 6.9 mph
(S 11 kph)
- 10SM
04:54
Clear
64°F / 18°C 52°F / 11°C 64% 30.04 in
(1017 mb)
S 4.6 mph
(S 7 kph)
- 10SM
03:54
Clear
63°F / 17°C 52°F / 11°C 68% 30.04 in
(1017 mb)
SW 4.6 mph
(SW 7 kph)
- 10SM
02:54
Clear
64°F / 18°C 52°F / 11°C 64% 30.04 in
(1017 mb)
SSE 6.9 mph
(SSE 11 kph)
- 10SM
01:54
Clear
64°F / 18°C 52°F / 11°C 64% 30.06 in
(1018 mb)
SSE 4.6 mph
(SSE 7 kph)
- 10SM
00:54
Clear
64°F / 18°C 52°F / 11°C 64% 30.06 in
(1018 mb)
SW 8.1 mph
(SW 13 kph)
- 10SM
Time Weather Temperature Dewpoint Humidity Pressure Winds Precip Visibility


Weather for websites

WeatherForYou.com, LLC is not responsible for any damages or problems caused by this service. Current weather conditions are obtained from the closest station including government and personal stations which may have varying degrees of accuracy. Weather forecasts are derived from the NOAA NDFD. Like all things, this site belongs to Jesus Christ... He just trusts us to maintain it. If you have any questions or comments email webmaster@weatherforyou.com

Copyright © 2016, WeatherForYou.com LLC. All rights reserved.